Other Public Products
Issued by NWS Grand Forks, ND

Home | Current Version | Previous Version | Text Only | Print | Product List | Glossary On
Versions: 1 2 3 4 5 6 7 8 9 10 11 12 13 14 15 16 17 18 19 20 21 22 23 24 25 26 27 28 29 30 31 32 33 34 35 36 37 38 39 40 41 42 43 44 45 46 47 48 49 50
000
FPUS83 KFGF 240431
OPUFGF
PRAIRIE TO PINES WEATHER ROUNDUP
NATIONAL WEATHER SERVICE EASTERN NORTH DAKOTA/GRAND FORKS ND
1100 PM CDT TUE AUG 23 2016

 **SATELLITE DATA USED TO AUGMENT SKY COVER AT AUTOMATED STATIONS**
 *****  WEATHER ACROSS EASTERN NORTH DAKOTA  *****

CITY           SKY/WX    TMP DP  RH WIND       PRES   REMARKS
GRAND FORKS    MOCLDY    72  60  66 NW10      29.76R
GRAND FORKS AF FAIR      70  58  66 NW7       29.77R
GRAND CITY NWS   N/A     70 N/A N/A NW9         N/A
BUXTON           N/A     75  74  96 NW3         N/A
DEVILS LAKE    FAIR      62  52  69 W10       29.82R
FARGO          CLOUDY    76  66  71 S8        29.77R
WAHPETON ARPT  FAIR      68  64  88 SE5       29.79S
$$

 *****  WEATHER ACROSS CENTRAL AND WESTERN NORTH DAKOTA  *****

CITY           SKY/WX    TMP DP  RH WIND       PRES   REMARKS
JAMESTOWN      FAIR      59  53  80 NW6       29.84R
BISMARCK       CLEAR     61  47  59 W5        29.90S
MINOT          FAIR      65  45  48 SW7       29.84S
MINOT AFB      FAIR      60  46  59 W7        29.83S
GARRISON         N/A     57  43  59 W7        29.89R
WILLISTON      PTCLDY    67  46  47 W15       29.90R
DICKINSON      CLEAR     54  38  54 W8        29.96R
HETTINGER      CLEAR     51  40  65 NW5       30.00R
$$

 *****  OTHER OBSERVATIONS NORTHEAST NORTH DAKOTA  *****

CITY           SKY/WX    TMP DP  RH WIND       PRES   REMARKS
WALHALLA       FAIR      64  63  94 W8        29.76R
LANGDON        CLOUDY    59  54  82 W9        29.80R
CAVALIER       FAIR      66  54  63 NW12      29.74R
GRAFTON        FAIR      70  55  60 W8        29.78R
CANDO          FAIR      54  52  94 W6        29.83S
FORT TOTTEN      N/A     61  53  76 W2        29.95
ROLLA          FAIR      54  50  87 W9        29.82F
RUGBY          NOT AVBL
 ***** THE ABOVE OBSERVATIONS ARE NON NWS ARE NOT QUALITY
        CONTROLLED AND MAY MIS-REPORT RAIN FOR SNOW...
$$

 *****  OTHER OBSERVATIONS SOUTHEAST NORTH DAKOTA *****

CITY           SKY/WX    TMP DP  RH WIND       PRES   REMARKS
COOPERSTOWN    NOT AVBL
VALLEY CITY    MOCLDY    63  52  67 NW9       29.84S
OAKES            N/A    N/A N/A N/A MISG        N/A
GWINNER        MOCLDY    72  57  60 NW10      29.82R
SHEYENNE NWR     N/A     75  59  57 NW7       29.95S
BUFFALO          N/A     69  48  47 NW8         N/A
WYNDMERE         N/A     70  68  94 S2          N/A
 ***** THE ABOVE OBSERVATIONS ARE NON NWS ARE NOT QUALITY
       CONTROLLED AND MAY MIS-REPORT RAIN FOR SNOW...
$$

  *****  WEATHER ACROSS NORTHERN MINNESOTA  *****

CITY           SKY/WX    TMP DP  RH WIND       PRES   REMARKS
FLAG ISLAND    FAIR      77  66  69 S6        29.66S
WARROAD        FAIR      77  70  78 SW13G24   29.70R
ROSEAU         LGT RAIN  75  70  83 SW12      29.71R
HALLOCK        CLOUDY    73  66  78 W7G16     29.73R
THF RVR FALLS  CLOUDY    73  68  83 W10       29.77R
HALSTAD          N/A     74  70  86 NW5         N/A
FOSSTON        FAIR      66  63  88 S9        29.79S
BAUDETTE       FAIR      75  67  76 S13       29.72F
WASKISH        FAIR      73  70  88 S7        29.77S
CROOKSTON      MOCLDY    73  66  78 NW13      29.77R
$$
  *****  WEATHER ACROSS CENTRAL AND WEST MINNESOTA  *****

CITY           SKY/WX    TMP DP  RH WIND       PRES   REMARKS
BEMIDJI        FAIR      71  68  92 S7        29.80S
PARK RAPIDS    MOCLDY    73  68  84 S7        29.83R
WADENA         FAIR      66  64  94 CALM      29.82S
DETROIT LAKES  FAIR      72  64  78 S7        29.82S
MOORHEAD       CLOUDY    73  66  78 S3        29.79R
FERGUS FALLS   FAIR      70  66  88 S8        29.82R
ELBOW LAKE     FAIR      66  64  95 SE7       29.82R
MORRIS MN      FAIR      66  66 100 SE3       29.81R
STAPLES        FAIR      70  64  83 SE5       29.83R
WHEATON        MOCLDY    72  68  88 SE7       29.81R
$$
  *****  WEATHER ELSEWHERE ACROSS MINNESOTA  *****

CITY           SKY/WX    TMP DP  RH WIND       PRES   REMARKS
DULUTH         FAIR      72  65  78 S12       29.88F
INTRNTL FALLS  FAIR      74  68  81 VRB6      29.77R
ELY            FAIR      72  64  78 S8        29.85F
CLOQUET        FAIR      70  63  78 SE5       29.87F
BRAINERD       FAIR      69  64  84 SE6       29.83F
HIBBING        FAIR      71  65  81 S7        29.84F
ALEXANDRIA     FAIR      69  66  90 S5        29.84S
SAINT CLOUD    CLOUDY    69  66  90 S13       29.84R
MINNEAPOLIS    CLOUDY    69  65  86 S5        29.87R THUNDER FOG
$$

  *****  WEATHER ACROSS SOUTH DAKOTA  *****

CITY           SKY/WX    TMP DP  RH WIND       PRES   REMARKS
SIOUX FALLS    MOCLDY    72  71  97 E3        29.81S THUNDER
BROOKINGS      CLOUDY    69  68  96 S7        29.84R FOG
WATERTOWN      MOCLDY    69  67  93 S9        29.83R
HURON          CLEAR     68  61  78 NW9       29.83R
SISSETON         N/A     72  68  87 SW3       29.78R
ABERDEEN       PTCLDY    68  57  68 NW12      29.84R
MITCHELL       MOCLDY    74  66  76 N8        29.84R
PIERRE         PTCLDY    67  41  38 NW14      29.90R
MOBRIDGE       MOCLDY    62  44  51 NW7       29.90R
RAPID CITY     PTCLDY    59  34  39 SW8       30.05R
$$

  *****  SOME WEATHER IN NEARBY STATES *****

CITY           SKY/WX    TMP DP  RH WIND       PRES   REMARKS
GLASGOW MT     CLOUDY    61  46  57 W25G32    29.99R
GREAT FALLS MT CLOUDY    59  42  53 N9        30.25R
CHEYENNE WY    CLOUDY    64  36  35 SE5       30.18R
SCOTTSBLUFF NE MOCLDY    60  45  57 E3        30.08R
OMAHA NE       TSTM      66  63  90 CALM        N/A
DES MOINES IA  MOCLDY    77  73  87 S15       29.88F
DAVENPORT IA   CLOUDY    73  67  81 S17G24    30.01F
CHICAGO IL     CLOUDY    74  62  66 S14       30.09F
EAU CLAIRE WI  RAIN      68  67  96 SE16      29.87F
LA CROSSE WI   HVY RAIN  68  32  26 SE6       29.94F
$$

  *****  SOME NATIONAL WEATHER *****

CITY           SKY/WX    TMP DP  RH WIND       PRES   REMARKS
LA GUARDIA NY  CLEAR     75  59  57 S10       30.26S
RALEIGH NC     PTCLDY    73  63  70 E5        30.30R
ATLANTA GA     PTCLDY    81  71  71 SE3       30.25S
NEW ORLEANS LA PTCLDY    84  76  76 CALM      30.16S HX  93
OKLAHOMA CITY  CLOUDY    82  70  66 S15       30.03R
ALBUQUERQUE NM CLOUDY    71  47  42 N13       30.21R
SALT LAKE CITY PTCLDY    76  33  21 N3        30.04R
LOS ANGELES CA CLEAR     66  60  81 SW7       30.02R
BOISE ID       CLEAR     69  32  25 N7        30.07R
SEATTLE WA     PTCLDY    72  52  49 N8        30.18R
$$

*** WEATHER ACROSS MANITOBA...SASKATCHEWAN AND ONTARIO ***
                ***ONTARIO***

CITY           SKY/WX    TMP DP  RH WIND       PRES   REMARKS
GERALDTON      PTCLDY    66  61  82 S6        29.85F
THUNDER BAY    CLEAR     75  63  64 SW10G17   29.85R
SIOUX LOOKOUT  MOCLDY    73  68  83 VRB6      29.75R
TORONTO        PTCLDY    70  55  60 SW7       30.20F
BIG TROUT LK   CLOUDY    59  48  67 E6        29.90F
PICKLE LAKE    NOT AVBL
DRYDEN         CLOUDY    75  66  73 S13G18    29.72S
KENORA         MOCLDY    77  66  69 SW13G21   29.68F
$$
                *** MANITOBA***

CITY           SKY/WX    TMP DP  RH WIND       PRES   REMARKS
BRANDON        PTCLDY    54  50  87 W5        29.77S
DAUPHIN        PTCLDY    59  55  88 W7        29.73R
ISLAND LAKE    MOCLDY    61  54  77 NE10      29.88F
PILOT MOUND      N/A     61  52  72 W6          N/A
THE PAS        TSTM      59  52  77 NE13G21   29.84S
THOMPSON       MOCLDY    50  45  81 NE3       29.95R
WINNIPEG       PTCLDY    64  63  94 NW13      29.69R
LYNN LAKE      CLEAR     57  46  67 MISG      30.00F
CHURCHILL      PTCLDY    50  48  93 N7        29.98F
GILLAM         PTCLDY    59  50  72 E6        29.93S
$$
                ***SASKATCHEWAN***

CITY           SKY/WX    TMP DP  RH WIND       PRES   REMARKS
ESTEVAN        PTCLDY    59  48  67 W7        29.83S
KINDERSLEY     CLOUDY    52  50  93 N16G24    30.01R
LLOYDMINSTER   LGT RAIN  52  48  87 N10       30.11S
PRINCE ALBERT  CLOUDY    57  52  82 NE22G28   29.86R
REGINA         PTCLDY    54  52  94 W8        29.81R
YORKTON        PTCLDY    57  50  77 SW6       29.75R  C1F1C2F2C3F3C4F4C5F5C6F6C7F7C8F8C9F9CaFaCbFbCcFcCdFdCe!


USA.gov is the U.S. government's official web portal to all federal, state and local government web resources and services.